CZ-4B R/B (43586 NORAD) Tracking and Keplerian Element Data

This shows tracking and keplerian element data for the satellite.

Feedback or suggestion? Click here.




ElementValue
Catalog43586
NameCZ-4B R/B
Epoch Orbit471
Epoch Day241.94646518
Epoch Year2018
RAAN312.9289
Inclination97.3657
Eccentricity0.0150332
Argument of Perigee31.6066
Mean Anonmoly329.4016
Mean Motion15.8471523
Decay Rate0.0018742
L11 43586U 18063B 18241.94646518 .00187420 21757-5 32544-3 0 9993
L22 43586 97.3657 312.9289 0150332 31.6066 329.4016 15.84715230 4718



Live tracking and technical data element details for CZ-4B R/B (NORAD 43586). CZ-4B R/B can be tracked NOW for your location showing map with azimuth and elevation plus other details from your city location.







IsCatalogInMostPopularTable: catalog: 43586, numindb: 490
Update: records affected: 1



GetName: 43586 CZ-4B R/B

Hit Count: updated at: Sat, 17 May 2025 08:05:48 GMT